Regional Weather Roundup
Issued by NWS

Home | Current Version | Previous Version | Graphics & Text | Print | Product List | Glossary On
Versions: 1 2 3 4 5 6 7 8 9 10 11 12 13 14 15 16 17 18 19 20 21 22 23 24 25 26 27
000
ASUS45 KBOI 201210
RWRID
WEATHER ROUNDUP FOR IDAHO
NATIONAL WEATHER SERVICE BOISE ID
600 AM MDT SUN APR 20 2014

NOTE: "FAIR" INDICATES FEW OR NO CLOUDS BELOW 12000 FEET
WITH NO SIGNIFICANT WEATHER AND/OR OBSTRUCTIONS TO VISIBILITY

IDZ012-014-201300-
SOUTHWEST IDAHO


CITY           SKY/WX    TMP DP  RH WIND       PRES   REMARKS
BOISE          CLEAR     45  30  55 NW12      30.18R
CALDWELL       CLEAR     39  27  60 NW9       30.23R WCI  33
MOUNTAIN HOME  CLEAR     41  30  63 NW3       30.19R
$$

IDZ016-017-201300-
SOUTHCENTRAL IDAHO


CITY           SKY/WX    TMP DP  RH WIND       PRES   REMARKS
BURLEY         PTCLDY    45  29  53 SW16G23   30.14R
JEROME         CLEAR     44  29  55 SW17G28   30.14R
TWIN FALLS     CLEAR     46  28  49 SW20G26   30.17R
$$

IDZ019>023-201300-
SOUTHEAST IDAHO


CITY           SKY/WX    TMP DP  RH WIND       PRES   REMARKS
IDAHO FALLS    CLOUDY    48  30  49 S20G30    30.05R
POCATELLO      CLEAR     48  26  42 SW24      30.10R
REXBURG        MOCLDY    47  28  47 SW23G32   30.02R
$$

IDZ006-010-011-018-031-032-201300-
CENTRAL IDAHO MOUNTAINS


CITY           SKY/WX    TMP DP  RH WIND       PRES   REMARKS
MCCALL         CLEAR     34  24  67 N7        30.17R WCI  28
HAILEY         CLEAR     36  25  64 CALM      30.09R
STANLEY          N/A     31  22  69 CALM      30.15R
SALMON         CLEAR     45  25  45 NW10      30.14R
CHALLIS        CLEAR     43  26  51 NW9       30.10R
$$

IDZ002-004-006-007-026-201300-
NORTHERN IDAHO


CITY           SKY/WX    TMP DP  RH WIND       PRES   REMARKS
LEWISTON       CLEAR     48  26  42 NW5       30.24R
LOWELL           N/A     42  40  92 CALM      30.27R
COEUR D`ALENE  PTCLDY    37  30  75 SW5       30.19R WCI  34
MULLAN PASS    FRZ RAIN  27  25  93 SW12G26   30.10R WCI  16
$$



USA.gov is the U.S. government's official web portal to all federal, state and local government web resources and services.